This demonstration page uses our WeatherBlox Daily Observations layout. Learn more.

Hourly Observations for August 13, 2020

Temp ( °F °C ) Dew Point ( °F °C ) Humidity (%) Winds ( mph kmh ) Pressure ( in mb ) Visibility ( mi km ) Precip ( " mm )
12:51 am 00:51 Clear 82 27.8 52 11.1 35 35 Calm 29.79 1009 10 16.0934 0 0
1:51 am 01:51 Clear 81 27.2 53 11.7 38 38 NNW 3 6 29.77 1008 10 16.0934 0 0
2:51 am 02:51 Clear 79 26.1 52 11.1 39 39 NW 3 6 29.77 1008 10 16.0934 0 0
3:51 am 03:51 Clear 80 26.7 52 11.1 38 38 Calm 29.77 1008 10 16.0934 0 0
4:51 am 04:51 Clear 77 25 52 11.1 42 42 NNW 3 6 29.78 1009 10 16.0934 0 0
5:51 am 05:51 Sunny 73 22.8 52 11.1 48 48 Calm 29.81 1010 10 16.0934 0 0
6:51 am 06:51 Sunny 82 27.8 54 12.2 38 38 Calm 29.82 1010 10 16.0934 0 0
7:51 am 07:51 Sunny 87 30.6 54 12.2 32 32 N 3 6 29.83 1010 10 16.0934 0 0
8:51 am 08:51 Sunny 90 32.2 54 12.2 29 29 Calm 29.83 1010 10 16.0934 0 0
9:51 am 09:51 Sunny 94 34.4 54 12.2 26 26 SW 6 9 29.83 1010 10 16.0934 0 0
10:51 am 10:51 Sunny 98 36.7 54 12.2 23 23 undefined N/A 29.81 1009 10 16.0934 0 0
11:51 am 11:51 Sunny 100 37.8 52 11.1 20 20 VRB 3 6 29.78 1008 10 16.0934 0 0
12:51 pm 12:51 Sunny 104 40 51 10.6 17 17 VRB 6 9 29.75 1008 10 16.0934 0 0
1:51 pm 13:51 Sunny 107 41.7 45 7.2 12 12 SW 12 19 29.72 1007 10 16.0934 0 0
2:51 pm 14:51 Sunny 106 41.1 43 6.1 12 12 W 8 13 29.69 1006 10 16.0934 0 0
3:51 pm 15:51 Sunny 107 41.7 43 6.1 11 11 SW 13 20 29.67 1005 10 16.0934 0 0
4:51 pm 16:51 Sunny 106 41.1 46 7.8 13 13 W 13 20 29.66 1004 10 16.0934 0 0
5:14 pm 17:14 Sunny with Nearby Thunderstorms 108 42.2 45 7.2 12 12 W 12 19 29.5 999 10 16.0934 0 0
5:29 pm 17:29 Sunny 108 42.2 44 6.7 12 12 W 12 19 29.5 999 10 16.0934 0 0
5:51 pm 17:51 Sunny 105 40.6 44 6.7 13 13 W 9 15 29.67 1005 10 16.0934 0 0
6:14 pm 18:14 Sunny 99 37.2 48 8.9 18 18 SSW 17 28 29.56 1001 10 16.0934 0 0
6:51 pm 18:51 Sunny 98 36.7 49 9.4 19 19 SSW 9 15 29.67 1005 10 16.0934 0 0
7:51 pm 19:51 Clear 95 35 49 9.4 21 21 N 7 11 29.7 1006 10 16.0934 0 0
8:51 pm 20:51 Clear 98 36.7 48 8.9 18 18 NNW 16 26 29.72 1007 10 16.0934 0 0
9:51 pm 21:51 Clear 95 35 50 10 22 22 NNW 17 28 29.74 1007 10 16.0934 0 0
10:51 pm 22:51 Clear 94 34.4 49 9.4 21 21 NNW 13 20 29.73 1007 10 16.0934 0 0
11:51 pm 23:51 Clear 92 33.3 48 8.9 22 22 N 6 9 29.75 1008 10 16.0934 0 0

Powered by AerisWeather